Welcome to the New NWS' Forecast!
Most changes are behind the scenes, but click here for differences you might notice.
Latest weather observations around

CW2285 Thousand Palms (C2285)

Using English Units (Switch to International System of Units)
Date/ Time (PST) Wind (mph) Vis. (mi) Weather Sky Cond. Temp (°F) Rel. Humidity Wind Chill (°F) Heat Index (°F) Pressure Precip. (in)
Air Dwpt 6 hour Altimeter (inHg) Sea level (inHg) 1 hr 3 hr 6 hr
Max Min
Jan 17 23:30 NW 2   Clear   55 43     65%     30.12        
Jan 17 23:25 NW 2   Clear   56 44     64%     30.12        
Jan 17 23:20 NW 2   Clear   56 44     63%     30.12        
Jan 17 23:15 NW 1   Clear   56 43     62%     30.12        
Jan 17 23:10 NW 1   Clear   56 44     63%     30.12        
Jan 17 23:05 NW 2   Clear   56 44     63%     30.12        
Jan 17 23:00 NW 2   Clear   56 43     62%     30.13        
Jan 17 22:55 NW 1   Clear   56 44     63%     30.13        
Jan 17 22:50 NW 1   Clear   56 44     65%     30.13        
Jan 17 22:45 NW 1   Clear   56 44     65%     30.13        
Jan 17 22:40 NW 1   Clear   56 44     64%     30.13        
Jan 17 22:35 NW 2   Clear   57 45     64%     30.13        
Jan 17 22:30 NW 2   Clear   57 45     64%     30.13        
Jan 17 22:25 NW 2   Clear   57 45     64%     30.13        
Jan 17 22:20 NW 2   Clear   57 45     65%     30.13        
Jan 17 22:10 NW 1   Clear   57 45     63%     30.13        
Jan 17 22:05 NW 2   Clear   57 45     63%     30.13        
Jan 17 21:55 NW 1   Clear   57 45     63%     30.14        
Jan 17 21:50 NW 2   Clear   58 45     63%     30.14        
Jan 17 21:45 NW 2   Clear   58 45     63%     30.13        
Jan 17 21:40 NW 1   Clear   58 45     63%     30.13        
Jan 17 21:35 NW 1   Clear   58 45     63%     30.13        
Jan 17 21:30 NW 2   Clear   58 45     62%     30.13        
Jan 17 21:25 NW 2   Clear   58 45     61%     30.14        
Jan 17 21:20 NW 1   Clear   58 45     61%     30.13        
Jan 17 21:10 NW 2   Clear   59 45     59%     30.13        
Jan 17 21:05 NW 2   Clear   59 45     59%     30.13        
Jan 17 21:00 NW 2   Clear   59 45     59%     30.13        
Notice The following observation data may not be complete
Jan 17 20:55     Clear            %              
Jan 17 20:45 Calm   Clear   60 45     57%     30.13        
Jan 17 20:40 Calm   Clear   60 45     57%     30.13        
Jan 17 20:35 NW 1   Clear   60 45     57%     30.13        
Jan 17 20:25 NW 1   Clear   60 45     57%     30.13        
Jan 17 20:20 Calm   Clear   60 44     56%     30.14        
Jan 17 20:15 NW 1   Clear   60 45     57%     30.14        
Jan 17 20:10 NW 1   Clear   60 45     57%     30.14        
Jan 17 20:05 NW 1   Clear   61 45     56%     30.14        
Jan 17 20:00 NW 2   Clear   60 45     57%     30.14        
Jan 17 19:55 NW 2   Clear   61 45     55%     30.14        
Jan 17 19:50 NW 1   Clear   62 45     53%     30.14        
Jan 17 19:45 Calm   Clear   62 44     52%     30.14        
Jan 17 19:40 NW 1   Clear   62 45     53%     30.14        
Jan 17 19:35 NW 1   Clear   61 44     54%     30.14        
Jan 17 19:30 NW 2   Clear   62 45     53%     30.14        
Jan 17 19:25 NW 1   Clear   62 45     53%     30.14        
Jan 17 19:20 NW 2   Clear   63 46     53%     30.14        
Jan 17 19:15 NW 2   Clear   62 44     52%     30.14        
Jan 17 19:10 NW 1   Clear   62 45     54%     30.15        
Jan 17 19:05 NW 1   Clear   62 46     55%     30.15        
Jan 17 19:00 NW 2   Clear   63 45     52%     30.14        
Jan 17 18:55 NW 1   Clear   64 44     48%     30.14        
Jan 17 18:50 NW 1   Clear   64 44     48%     30.14        
Jan 17 18:45 NW 1   Clear   64 44     48%     30.14        
Jan 17 18:40 Calm   Clear   64 43     47%     30.14        
Jan 17 18:30 NW 1   Clear   66 43     44%     30.14        
Jan 17 18:25 NW 2   Clear   66 43     43%     30.14        
Jan 17 18:20 NW 1   Clear   66 43     43%     30.14        
Jan 17 18:15 NW 1   Clear   66 43     44%     30.14        
Jan 17 18:10 NW 2   Clear   66 43     44%     30.14        
Jan 17 18:05 NW 2   Clear   66 43     44%     30.14        
Jan 17 18:00 NW 1   Clear   66 43     44%     30.14        
Jan 17 17:55 NW 2   Clear   67 45     45%     30.14        
Jan 17 17:50 NW 2   Clear   67 45     45%     30.14        
Jan 17 17:40 NW 2   Clear   68 45     44%     30.14        
Jan 17 17:30 NW 1   Clear   69 44     41%     30.13        
Jan 17 17:25 NW 1   Clear   69 44     41%     30.13        
Jan 17 17:20 NW 2   Clear   69 44     41%     30.12        
Jan 17 17:15 NW 2   Clear   70 45     40%     30.12        
Jan 17 17:10 NW 2   Clear   70 44     39%     30.12        
Jan 17 17:05 NW 2   Clear   71 45     39%   70 30.12        
Jan 17 16:55 NW 2   Clear   72 44     37%   71 30.12        
Jan 17 16:50 NW 2   Clear   72 44     36%   71 30.12        
Jan 17 16:45 NW 2   Clear   73 44     35%   72 30.12        
Jan 17 16:40 NW 2   Clear   74 43     33%   73 30.12        
Jan 17 16:35 NW 1   Clear   75 44     33%   74 30.12        
Jan 17 16:30 NW 1   Clear   75 43     32%   74 30.12        
Jan 17 16:25 NW 2   Clear   76 43     31%   75 30.12        
Jan 17 16:20 NW 1   Clear   76 42     30%   75 30.12        
Jan 17 16:15 NW 1   Clear   76 42     30%   75 30.12        
Jan 17 16:10 NW 1   Clear   76 42     30%   75 30.12        
Jan 17 16:00 NW 2   Clear   76 41     29%   75 30.12        
Jan 17 15:55 NW 2   Clear   76 41     28%   75 30.11        
Jan 17 15:50 NW 3   Clear   76 41     28%   75 30.11        
Jan 17 15:45 NW 3   Clear   77 39     26%   76 30.11        
Jan 17 15:40 NW 2   Clear   77 40     27%   76 30.11        
Jan 17 15:35 NW 3   Clear   77 39     26%   76 30.1        
Jan 17 15:30 NW 3   Clear   77 39     26%   76 30.1        
Jan 17 15:25 NW 3   Clear   77 39     26%   76 30.1        
Jan 17 15:20 NW 2   Clear   77 39     26%   76 30.1        
Jan 17 15:10 NW 3   Clear   77 40     27%   76 30.1        
Jan 17 15:00 NW 3   Clear   78 38     24%   77 30.1        
Jan 17 14:55 NW 2   Clear   78 39     25%   77 30.1        
Jan 17 14:50 NW 3   Clear   78 40     26%   77 30.1        
Jan 17 14:45 NW 1   Clear   78 39     25%   77 30.1        
Jan 17 14:40 NW 2   Clear   78 39     25%   77 30.1        
Jan 17 14:35 NW 5   Clear   78 39     25%   77 30.1        
Jan 17 14:30 NW 2   Clear   78 39     25%   77 30.1        
Jan 17 14:25 NW 3   Clear   78 39     25%   77 30.1        
Jan 17 14:20 NW 2   Clear   78 40     26%   77 30.1        
Jan 17 14:15 NW 3   Clear   78 39     25%   77 30.1        
Jan 17 14:10 NW 3   Clear   78 39     25%   77 30.1        
Jan 17 14:05 NW 2   Clear   78 39     25%   77 30.1        
Jan 17 14:00 NW 2   Clear   77 37     24%   76 30.1        
Jan 17 13:50 NW 2   Clear   77 38     25%   76 30.1        
Jan 17 13:45 NW 2   Clear   78 38     24%   77 30.1        
Jan 17 13:35 NW 5   Clear   77 38     25%   76 30.11        
Jan 17 13:30 NW 3   Clear   77 38     25%   76 30.11        
Jan 17 13:25 NW 4   Clear   77 39     26%   76 30.11        
Jan 17 13:20 NW 2   Clear   76 40     27%   75 30.11        
Jan 17 13:15 NW 3   Clear   77 40     27%   76 30.12        
Jan 17 13:10 NW 2   Clear   77 40     27%   76 30.12        
Jan 17 13:05 NW 2   Clear   76 41     28%   75 30.12        
Jan 17 12:55 NW 3   Clear   76 41     28%   75 30.13        
Jan 17 12:50 NW 3   Clear   76 40     27%   75 30.14        
Jan 17 12:45 NW 2   Clear   76 40     27%   75 30.14        
Jan 17 12:40 NW 2   Clear   75 41     29%   74 30.14        
Jan 17 12:35 NW 3   Clear   76 41     29%   75 30.14        
Jan 17 12:30 NW 2   Clear   75 41     30%   74 30.15        
Jan 17 12:25 NW 2   Clear   75 41     29%   74 30.15        
Jan 17 12:20 NW 2   Clear   75 41     30%   74 30.15        
Jan 17 12:15 NW 2   Clear   75 41     29%   74 30.16        
Jan 17 12:10 NW 3   Clear   75 41     29%   74 30.16        
Jan 17 12:05 NW 3   Clear   75 41     29%   74 30.16        
Jan 17 12:00 NW 2   Clear   74 39     28%   72 30.16        
Jan 17 11:55 NW 2   Clear   74 41     30%   73 30.16        
Jan 17 11:45 NW 3   Clear   74 41     30%   73 30.17        
Jan 17 11:30 NW 3   Clear   73 41     31%   71 30.18        
Jan 17 11:25 NW 1   Clear   73 41     31%   71 30.19        
Jan 17 11:15 NW 1   Clear   72 40     31%   70 30.19        
Jan 17 11:10 NW 1   Clear   72 40     31%   70 30.19        
Jan 17 11:05 NW 3   Clear   72 40     31%   70 30.19        
Jan 17 10:55 NW 3   Clear   72 41     32%   70 30.2        
Jan 17 10:50 NW 3   Clear   71 39     31%   69 30.2        
Jan 17 10:45 NW 2   Clear   71 41     34%   69 30.2        
Jan 17 10:35 NW 2   Clear   71 41     34%   69 30.2        
Jan 17 10:30 NW 4   Clear   71 41     34%   69 30.2        
Jan 17 10:25 NW 3   Clear   70 40     34%     30.2        
Jan 17 10:20 NW 2   Clear   70 41     35%     30.2        
Jan 17 10:15 NW 2   Clear   70 43     37%     30.2        
Jan 17 10:10 NW 2   Clear   69 42     38%     30.2        
Jan 17 10:05 NW 1   Clear   68 43     40%     30.2        
Jan 17 10:00 NW 1   Clear   68 42     39%     30.2        
Jan 17 09:55 NW 1   Clear   67 44     44%     30.2        
Jan 17 09:50 Calm   Clear   67 44     44%     30.2        
Jan 17 09:45 NW 2   Clear   66 43     44%     30.2        
Jan 17 09:40 NW 1   Clear   66 43     44%     30.2        
Jan 17 09:15 Calm   Clear   63 44     50%     30.2        
Jan 17 09:10 Calm   Clear   62 44     51%     30.2        
Jan 17 09:05 NW 1   Clear   61 43     51%     30.2        
Jan 17 08:50 Calm   Clear   60 42     51%     30.2        
Jan 17 08:45 NW 1   Clear   60 44     55%     30.2        
Jan 17 08:40 NW 1   Clear   59 43     56%     30.2        
Jan 17 08:35 Calm   Clear   58 42     56%     30.2        
Jan 17 08:30 Calm   Clear   58 43     58%     30.2        
Jan 17 08:25 Calm   Clear   57 43     59%     30.19        
Jan 17 08:20 Calm   Clear   57 43     60%     30.19        
Jan 17 08:10 NW 1   Clear   55 42     61%     30.18        
Jan 17 07:50 NW 2   Clear   53 42     67%     30.18        
Jan 17 07:40 NW 1   Clear   52 41     67%     30.17        
Jan 17 07:35 NW 2   Clear   52 42     68%     30.17        
Jan 17 07:20 Calm   Clear   52 41     65%     30.17        
Jan 17 07:15 NW 1   Clear   52 41     66%     30.17        
Jan 17 07:10 NW 1   Clear   51 41     69%     30.16        
Jan 17 07:00 NW 2   Clear   50 40     69%     30.17        
Jan 17 06:55 NW 2   Clear   50 40     69%     30.16        
Jan 17 06:50 NW 2   Clear   51 40     67%     30.16        
Jan 17 06:45 NW 2   Clear   51 40     66%     30.15        
Notice The following observation data may not be complete
Jan 17 06:40     Clear            %              
Jan 17 06:35 NW 2   Clear   51 40     65%     30.15        
Notice The following observation data may not be complete
Jan 17 06:25     Clear            %              
Jan 17 06:20 NW 1   Clear   52 41     65%     30.14        
Jan 17 06:00 NW 1   Clear   52 41     65%     30.14        
Jan 17 05:55 NW 1   Clear   52 41     66%     30.14        
Jan 17 05:50 NW 2   Clear   52 41     66%     30.13        
Jan 17 05:45 NW 2   Clear   51 40     67%     30.13        
Jan 17 05:40 NW 2   Clear   51 41     69%     30.12        
Jan 17 05:35 NW 1   Clear   51 41     69%     30.12        
Jan 17 05:30 NW 2   Clear   51 41     68%     30.12        
Notice The following observation data may not be complete
Jan 17 05:10     Clear            %              
Jan 17 05:05 Calm   Clear   51 40     66%     30.11        
Jan 17 05:00 Calm   Clear   52 41     65%     30.11        
Jan 17 04:55 Calm   Clear   52 41     67%     30.11        
Jan 17 04:50 NW 1   Clear   51 41     68%     30.11        
Jan 17 04:45 NW 2   Clear   51 41     68%     30.11        
Jan 17 04:40 NW 1   Clear   51 41     69%     30.11        
Jan 17 04:35 NW 2   Clear   51 41     69%     30.11        
Jan 17 04:30 NW 1   Clear   51 41     69%     30.11        
Jan 17 04:25 NW 1   Clear   52 42     68%     30.11        
Jan 17 04:20 NW 2   Clear   52 41     67%     30.11        
Jan 17 04:15 NW 1   Clear   52 41     66%     30.1        
Jan 17 04:05 NW 2   Clear   52 41     66%     30.1        
Jan 17 04:00 NW 2   Clear   52 41     67%     30.1        
Notice The following observation data may not be complete
Jan 17 03:55     Clear            %              
Jan 17 03:50 NW 2   Clear   52 41     67%     30.1        
Jan 17 03:35 NW 1   Clear   52 41     67%     30.1        
Jan 17 03:25 NW 2   Clear   52 41     67%     30.1        
Jan 17 03:20 NW 1   Clear   53 42     67%     30.1        
Notice The following observation data may not be complete
Jan 17 03:10     Clear            %              
Jan 17 03:05 NW 2   Clear   52 42     69%     30.1        
Jan 17 03:00 NW 2   Clear   52 43     70%     30.11        
Jan 17 02:50 NW 1   Clear   53 42     67%     30.11        
Jan 17 02:45 NW 2   Clear   53 42     67%     30.11        
Jan 17 02:40 NW 1   Clear   54 43     66%     30.1        
Jan 17 02:35 NW 2   Clear   54 43     66%     30.1        
Jan 17 02:30 NW 2   Clear   54 43     66%     30.11        
Jan 17 02:20 NW 2   Clear   54 43     67%     30.11        
Notice The following observation data may not be complete
Jan 17 02:10     Clear            %              
Jan 17 02:05 NW 2   Clear   54 43     65%     30.11        
Jan 17 01:45 NW 2   Clear   55 43     65%     30.11        
Jan 17 01:40 NW 2   Clear   54 43     66%     30.11        
Jan 17 01:35 NW 2   Clear   54 43     66%     30.11        
Jan 17 01:30 NW 2   Clear   54 43     66%     30.11        
Jan 17 01:20 NW 1   Clear   55 43     63%     30.11        
Jan 17 01:15 NW 1   Clear   55 43     63%     30.11        
Notice The following observation data may not be complete
Jan 17 01:10     Clear            %              
Jan 17 01:00 NW 1   Clear   56 43     61%     30.11        
Jan 17 00:55 NW 2   Clear   56 43     61%     30.11        
Jan 17 00:50 NW 1   Clear   56 43     61%     30.11        
Jan 17 00:45 NW 2   Clear   56 43     62%     30.11        
Notice The following observation data may not be complete
Jan 17 00:40     Clear            %              
Jan 17 00:35 NW 2   Clear   56 44     63%     30.11        
Notice The following observation data may not be complete
Jan 17 00:25     Clear            %              
Jan 17 00:20 Calm   Clear   56 44     64%     30.12        
Jan 17 00:15 Calm   Clear   56 44     63%     30.12        
Jan 17 00:10 Calm   Clear   56 43     62%     30.12        
Jan 17 00:05 NW 1   Clear   57 44     62%     30.12        
Jan 17 00:00 NW 1   Clear   57 44     61%     30.12        
Jan 16 23:55 NW 2   Clear   57 43     60%     30.12        
Jan 16 23:50 NW 2   Clear   57 44     61%     30.12        
Jan 16 23:45 NW 3   Clear   57 45     64%     30.12        
Jan 16 23:30 NW 2   Clear   56 44     65%     30.12        
Jan 16 23:20 NW 1   Clear   57 45     64%     30.12        
Jan 16 23:15 NW 2   Clear   57 45     64%     30.12        
Jan 16 23:10 NW 2   Clear   57 45     65%     30.13        
Notice The following observation data may not be complete
Jan 16 22:55     Clear            %              
Jan 16 22:50 NW 2   Clear   57 46     66%     30.12        
Jan 16 22:45 NW 2   Clear   58 46     65%     30.12        
Notice The following observation data may not be complete
Jan 16 22:25     Clear            %              
Jan 16 22:20 NW 2   Clear   59 46     61%     30.13        
Jan 16 22:15 NW 2   Clear   60 46     60%     30.13        
Notice The following observation data may not be complete
Jan 16 22:10     Clear            %              
Jan 16 22:05 NW 1   Clear   60 46     59%     30.13        
Jan 16 22:00 NW 2   Clear   60 46     60%     30.12        
Jan 16 21:55 NW 2   Clear   60 47     61%     30.13        
Jan 16 21:50 NW 1   Clear   60 47     61%     30.13        
Jan 16 21:45 NW 2   Clear   59 46     62%     30.12        
Jan 16 21:30 Calm   Clear   60 46     60%     30.12        
Jan 16 21:25 Calm   Clear   60 46     60%     30.12        
Jan 16 21:20 NW 1   Clear   61 47     59%     30.12        
Jan 16 21:15 Calm   Clear   61 46     58%     30.12        
Jan 16 21:05 NW 1   Clear   61 46     58%     30.11        
Jan 16 20:45 NW 1   Clear   61 47     59%     30.11        
Jan 16 20:40 NW 2   Clear   61 47     59%     30.11        
Jan 16 20:35 NW 1   Clear   62 45     54%     30.11        
Jan 16 20:30 NW 1   Clear   62 45     54%     30.1        
Jan 16 20:25 Calm   Clear   63 46     53%     30.1        
Jan 16 20:20 Calm   Clear   63 46     53%     30.1        
Jan 16 20:15 Calm   Clear   63 46     53%     30.1        
Jan 16 20:10 Calm   Clear   63 46     53%     30.1        
Jan 16 19:55 NW 1   Clear   63 44     50%     30.1        
Jan 16 19:35 Calm   Clear   63 44     50%     30.09        
Jan 16 19:20 NW 1   Clear   64 44     48%     30.1        
Jan 16 19:10 NW 1   Clear   64 43     47%     30.1        
Jan 16 19:05 NW 1   Clear   64 43     47%     30.09        
Jan 16 19:00 NW 2   Clear   64 43     46%     30.09        
Jan 16 18:55 NW 1   Clear   64 43     46%     30.09        
Jan 16 18:50 NW 1   Clear   64 43     46%     30.09        
Jan 16 18:45 NW 2   Clear   64 42     45%     30.09        
Jan 16 18:40 NW 2   Clear   64 43     47%     30.09        
Jan 16 18:35 NW 1   Clear   64 44     48%     30.08        
Jan 16 18:30 NW 1   Clear   64 45     50%     30.08        
Jan 16 18:25 NW 2   Clear   64 44     48%     30.07        
Jan 16 18:05 NW 1   Clear   65 44     46%     30.07        
Jan 16 18:00 NW 2   Clear   65 45     48%     30.07        
Jan 16 17:55 NW 2   Clear   65 44     47%     30.07        
Jan 16 17:50 Calm   Clear   66 43     44%     30.07        
Jan 16 17:40 Calm   Clear   67 44     44%     30.06        
Jan 16 17:35 Calm   Clear   67 44     44%     30.06        
Jan 16 17:30 Calm   Clear   67 44     44%     30.06        
Jan 16 17:20 Calm   Clear   68 46     45%     30.06        
Jan 16 17:15 NW 1   Clear   68 46     45%     30.06        
Jan 16 17:10 NW 1   Clear   69 47     45%     30.06        
Jan 16 17:05 NW 1   Clear   69 45     42%     30.06        
Jan 16 17:00 Calm   Clear   70 42     36%     30.06        
Jan 16 16:50 Calm   Clear   71 43     37%   70 30.06        
Jan 16 16:45 Calm   Clear   71 42     35%   69 30.06        
Notice The following observation data may not be complete
Jan 16 16:40     Clear            %              
Jan 16 16:35 Calm   Clear   71 43     37%   70 30.06        
Jan 16 16:30 Calm   Clear   72 42     34%   70 30.06        
Jan 16 16:25 Calm   Clear   72 42     34%   70 30.05        
Jan 16 16:20 Calm   Clear   73 41     32%   72 30.06        
Jan 16 16:15 Calm   Clear   73 41     32%   72 30.06        
Notice The following observation data may not be complete
Jan 16 16:10     Clear            %              
Jan 16 16:05 NW 1   Clear   73 41     32%   72 30.06        
Jan 16 16:00 NW 2   Clear   73 41     32%   72 30.06        
Jan 16 15:55 NW 1   Clear   74 41     30%   73 30.06        
Jan 16 15:50 NW 2   Clear   74 41     31%   73 30.06        
Jan 16 15:45 NW 2   Clear   74 41     30%   73 30.06        
Jan 16 15:35 NW 2   Clear   74 41     30%   73 30.05        
Jan 16 15:30 NW 2   Clear   74 40     29%   72 30.05        
Jan 16 15:25 NW 3   Clear   75 41     29%   74 30.05        
Jan 16 15:20 WNW 2   Clear   75 40     28%   74 30.05        
Jan 16 15:15 WNW 2   Clear   76 41     28%   75 30.04        
Jan 16 15:10 WNW 3   Clear   75 39     27%   73 30.04        
Jan 16 15:05 WNW 3   Clear   76 39     26%   75 30.04        
Jan 16 15:00 WNW 3   Clear   76 41     28%   75 30.04        
Jan 16 14:55 WNW 3   Clear   76 41     29%   75 30.04        
Jan 16 14:50 WNW 5   Clear   77 42     29%   76 30.04        
Notice The following observation data may not be complete
Jan 16 14:40     Clear            %              
Jan 16 14:35 WNW 2   Clear   76 41     29%   75 30.05        
Jan 16 14:30 WNW 2   Clear   76 41     28%   75 30.05        
Jan 16 14:25 WNW 5   Clear   76 41     28%   75 30.05        
Jan 16 14:20 WNW 4   Clear   76 41     28%   75 30.06        
Jan 16 14:15 WNW 4   Clear   76 41     28%   75 30.06        
Jan 16 14:10 WNW 3   Clear   75 41     29%   74 30.05        
Jan 16 14:05 WNW 3   Clear   75 39     27%   73 30.05        
Jan 16 14:00 WNW 2   Clear   75 40     28%   74 30.06        
Jan 16 13:55 WNW 2   Clear   75 40     28%   74 30.06        
Jan 16 13:50 WNW 2   Clear   75 40     28%   74 30.06        
Jan 16 13:15 WNW 2   Clear   74 38     27%   72 30.06        
Jan 16 13:10 WNW 2   Clear   74 40     29%   72 30.07        
Jan 16 13:05 WNW 2   Clear   74 39     28%   72 30.06        
Jan 16 13:00 Calm   Clear   73 40     30%   71 30.06        
Jan 16 12:55 WNW 1   Clear   74 39     28%   72 30.06        
Jan 16 12:50 WNW 2   Clear   74 39     28%   72 30.06        
Jan 16 12:45 WNW 2   Clear   73 39     29%   71 30.06        
Jan 16 12:40 WNW 2   Clear   73 39     29%   71 30.06        
Jan 16 12:35 WNW 1   Clear   73 40     30%   71 30.06        
Jan 16 12:30 WNW 2   Clear   73 39     29%   71 30.06        
Jan 16 12:25 WNW 3   Clear   72 40     31%   70 30.06        
Jan 16 12:20 WNW 2   Clear   73 40     30%   71 30.06        
Jan 16 12:15 WNW 2   Clear   73 42     33%   72 30.06        
Jan 16 12:10 WNW 3   Clear   72 41     32%   70 30.06        
Jan 16 12:05 WNW 2   Clear   71 40     33%   69 30.06        
Jan 16 12:00 WNW 2   Clear   71 40     32%   69 30.07        
Jan 16 11:55 WNW 2   Clear   71 39     31%   69 30.07        
Jan 16 11:50 WNW 2   Clear   71 39     31%   69 30.08        
Jan 16 11:45 WNW 1   Clear   71 40     32%   69 30.09        
Jan 16 11:40 WNW 2   Clear   70 40     34%     30.09        
Jan 16 11:35 WNW 3   Clear   70 40     34%     30.09        
Jan 16 11:30 WNW 2   Clear   70 41     35%     30.09        
Jan 16 11:25 WNW 2   Clear   69 39     34%     30.09        
Jan 16 11:20 WNW 1   Clear   69 39     34%     30.1        
Jan 16 11:15 WNW 3   Clear   69 39     34%     30.09        
Jan 16 11:10 WNW 3   Clear   69 39     34%     30.09        
Jan 16 11:05 WNW 3   Clear   69 41     36%     30.09        
Jan 16 11:00 WNW 2   Clear   69 42     37%     30.1        
Jan 16 10:55 WNW 1   Clear   68 41     37%     30.1        
Jan 16 10:50 WNW 1   Clear   68 42     39%     30.11        
Jan 16 10:45 WNW 1   Clear   68 41     38%     30.1        
Jan 16 10:40 WNW 2   Clear   68 41     38%     30.1        
Jan 16 10:35 WNW 2   Clear   68 41     38%     30.1        
Jan 16 10:30 WNW 2   Clear   68 41     38%     30.1        
Notice The following observation data may not be complete
Jan 16 10:25     Clear            %              
Jan 16 10:20 WNW 2   Clear   67 41     38%     30.12        
Jan 16 10:15 WNW 2   Clear   68 41     38%     30.12        
Jan 16 10:10 WNW 2   Clear   68 41     38%     30.11        
Jan 16 10:05 WNW 3   Clear   68 41     37%     30.11        
Jan 16 10:00 WNW 3   Clear   68 42     39%     30.12        
Jan 16 09:55 WNW 3   Clear   68 41     38%     30.12        
Jan 16 09:45 WNW 2   Clear   67 43     41%     30.12        
Jan 16 09:40 WNW 1   Clear   67 41     39%     30.12        
Jan 16 09:35 WNW 2   Clear   66 40     39%     30.12        
Jan 16 09:30 WNW 1   Clear   65 42     43%     30.12        
Jan 16 09:25 WNW 1   Clear   65 42     43%     30.12        
Jan 16 09:20 WNW 1   Clear   64 42     45%     30.12        
Jan 16 09:15 Calm   Clear   64 43     47%     30.11        
Jan 16 09:10 WNW 1   Clear   63 42     47%     30.11        
Jan 16 09:05 WNW 1   Clear   62 43     49%     30.11        
Jan 16 08:45 WNW 1   Clear   61 43     52%     30.09        
Jan 16 08:40 WNW 1   Clear   60 43     53%     30.09        
Jan 16 08:35 Calm   Clear   59 44     58%     30.1        
Notice The following observation data may not be complete
Jan 16 08:25     Clear            %              
Jan 16 08:20 WNW 1   Clear   56 43     62%     30.09        
Jan 16 08:15 WNW 1   Clear   56 43     62%     30.09        
Jan 16 08:10 WNW 1   Clear   56 42     60%     30.09        
Jan 16 08:05 WNW 1   Clear   56 42     60%     30.09        
Jan 16 08:00 Calm   Clear   56 41     58%     30.09        
Jan 16 07:55 WNW 1   Clear   56 41     57%     30.09        
Jan 16 07:50 Calm   Clear   57 41     55%     30.08        
Jan 16 07:45 WNW 1   Clear   56 41     56%     30.08        
Jan 16 07:40 WNW 2   Clear   55 41     58%     30.08        
Jan 16 07:35 WNW 1   Clear   56 41     58%     30.08        
Jan 16 07:30 WNW 1   Clear   55 41     58%     30.07        
Jan 16 07:25 WNW 2   Clear   55 41     59%     30.07        
Jan 16 07:20 WNW 2   Clear   55 40     58%     30.07        
Jan 16 07:15 WNW 2   Clear   55 40     58%     30.06        
Jan 16 07:10 WNW 2   Clear   55 40     57%     30.06        
Jan 16 07:05 WNW 1   Clear   56 41     56%     30.06        
Jan 16 07:00 WNW 1   Clear   56 40     55%     30.06        
Jan 16 06:55 WNW 1   Clear   56 40     54%     30.06        
Jan 16 06:50 Calm   Clear   56 40     54%     30.06        
Jan 16 06:45 WNW 1   Clear   57 40     53%     30.06        
Notice The following observation data may not be complete
Jan 16 06:40     Clear            %              
Jan 16 06:35 WNW 2   Clear   57 39     51%     30.05        
Jan 16 06:30 WNW 2   Clear   57 39     51%     30.05        
Notice The following observation data may not be complete
Jan 16 06:25     Clear            %              
Jan 16 06:20 WNW 1   Clear   57 42     57%     30.04        
Jan 16 06:15 WNW 1   Clear   58 38     47%     30.04        
Jan 16 06:10 WNW 1   Clear   57 38     49%     30.04        
Jan 16 06:05 Calm   Clear   59 38     45%     30.04        
Jan 16 06:00 WNW 1   Clear   59 38     45%     30.04        
Jan 16 05:55 WNW 1   Clear   59 38     46%     30.04        
Jan 16 05:50 WNW 2   Clear   58 38     48%     30.04        
Jan 16 05:45 WNW 2   Clear   59 38     46%     30.04        
Jan 16 05:40 WNW 2   Clear   59 38     46%     30.04        
Jan 16 05:35 WNW 1   Clear   59 39     47%     30.03        
Notice The following observation data may not be complete
Jan 16 05:25     Clear            %              
Jan 16 05:20 WNW 2   Clear   59 40     50%     30.03        
Jan 16 05:15 WNW 1   Clear   58 39     49%     30.03        
Jan 16 05:10 WNW 1   Clear   57 40     52%     30.03        
Jan 16 05:05 WNW 1   Clear   57 40     52%     30.03        
Jan 16 05:00 Calm   Clear   57 39     51%     30.03        
Jan 16 04:55 WNW 1   Clear   57 39     51%     30.03        
Jan 16 04:50 Calm   Clear   56 39     53%     30.04        
Notice The following observation data may not be complete
Jan 16 04:40     Clear            %              
Jan 16 04:35 WNW 1   Clear   56 41     56%     30.04        
Jan 16 04:30 WNW 1   Clear   57 41     54%     30.04        
Jan 16 04:25 WNW 2   Clear   56 40     54%     30.04        
Jan 16 04:20 WNW 2   Clear   56 40     55%     30.04        
Jan 16 04:15 WNW 2   Clear   57 40     53%     30.04        
Jan 16 04:05 WNW 1   Clear   58 39     50%     30.04        
Jan 16 04:00 WNW 1   Clear   58 39     49%     30.04        
Jan 16 03:55 WNW 1   Clear   59 40     49%     30.04        
Jan 16 03:45 WNW 1   Clear   57 40     52%     30.04        
Jan 16 03:40 WNW 1   Clear   57 41     55%     30.05        
Jan 16 03:35 WNW 1   Clear   57 41     54%     30.05        
Jan 16 03:30 WNW 2   Clear   57 41     55%     30.05        
Jan 16 03:25 WNW 2   Clear   57 41     54%     30.04        
Jan 16 03:20 WNW 2   Clear   58 41     53%     30.04        
Jan 16 03:15 WNW 1   Clear   57 41     55%     30.04        
Jan 16 03:10 WNW 3   Clear   57 42     57%     30.04        
Jan 16 03:05 WNW 1   Clear   58 41     54%     30.04        
Jan 16 03:00 WNW 1   Clear   57 41     55%     30.04        
Jan 16 02:55 WNW 1   Clear   57 41     55%     30.05        
Jan 16 02:50 Calm   Clear   57 41     56%     30.05        
Jan 16 02:45 WNW 1   Clear   56 41     58%     30.05        
Jan 16 02:40 WNW 1   Clear   56 42     59%     30.06        
Jan 16 02:30 WNW 1   Clear   57 43     60%     30.04        
Jan 16 02:25 Calm   Clear   57 42     58%     30.04        
Jan 16 02:20 WNW 1   Clear   56 42     59%     30.04        
Jan 16 02:15 WNW 1   Clear   56 43     62%     30.05        
Jan 16 02:10 Calm   Clear   57 42     58%     30.05        
Jan 16 02:05 WNW 1   Clear   56 43     61%     30.05        
Jan 16 02:00 WNW 2   Clear   56 43     62%     30.05        
Jan 16 01:55 WNW 2   Clear   56 43     61%     30.05        
Jan 16 01:50 WNW 1   Clear   56 43     62%     30.05        
Jan 16 01:45 WNW 1   Clear   56 43     62%     30.05        
Jan 16 01:35 Calm   Clear   57 43     59%     30.05        
Jan 16 01:30 WNW 2   Clear   57 43     60%     30.05        
Jan 16 01:25 WNW 2   Clear   57 43     60%     30.06        
Jan 16 01:20 WNW 1   Clear   57 43     60%     30.06        
Jan 16 01:15 WNW 2   Clear   58 44     59%     30.05        
Jan 16 01:10 WNW 2   Clear   58 43     57%     30.05        
Jan 16 01:05 WNW 1   Clear   58 43     57%     30.05        
Jan 16 01:00 WNW 1   Clear   58 43     57%     30.05        
Jan 16 00:45 Calm   Clear   58 43     57%     30.06        
Jan 16 00:40 WNW 1   Clear   58 44     59%     30.05        
Jan 16 00:35 WNW 1   Clear   58 44     59%     30.05        
Jan 16 00:30 WNW 1   Clear   58 43     58%     30.05        
Jan 16 00:25 WNW 1   Clear   58 43     58%     30.06        
Jan 16 00:15 WNW 1   Clear   58 43     57%     30.05        
Jan 16 00:10 WNW 1   Clear   59 44     57%     30.06        
Jan 16 00:05 WNW 1   Clear   59 43     56%     30.06        
Jan 15 23:45 WNW 1   Clear   60 43     53%     30.06        
Jan 15 23:40 WNW 2   Clear   60 44     55%     30.06        
Jan 15 23:35 Calm   Clear   60 43     54%     30.06        
Jan 15 23:30 WNW 2   Clear   61 44     53%     30.06        
Notice The following observation data may not be complete
Jan 15 23:25     Clear            %              
Jan 15 23:20 WNW 2   Clear   60 44     56%     30.06        
Jan 15 23:15 WNW 2   Clear   60 44     56%     30.06        
Jan 15 23:10 WNW 2   Clear   60 45     58%     30.06        
Jan 15 23:00 Calm   Clear   61 45     55%     30.06        
Jan 15 22:55 WNW 3   Clear   61 45     55%     30.06        
Jan 15 22:50 WNW 2   Clear   61 45     56%     30.06        
Jan 15 22:45 WNW 2   Clear   61 45     55%     30.06        
Notice The following observation data may not be complete
Jan 15 22:25     Clear            %              
Jan 15 22:20 WNW 2   Clear   61 45     56%     30.06        
Notice The following observation data may not be complete
Jan 15 21:55     Clear            %              
Jan 15 21:50 Calm   Clear   61 44     54%     30.06        
Jan 15 21:45 Calm   Clear   61 45     55%     30.06        
Jan 15 21:40 Calm   Clear   61 44     53%     30.06        
Jan 15 21:35 Calm   Clear   62 44     52%     30.06        
Jan 15 21:30 Calm   Clear   62 44     52%     30.06        
Jan 15 21:25 WNW 1   Clear   62 44     52%     30.06        
Jan 15 21:20 WNW 1   Clear   62 45     53%     30.06        
Jan 15 21:15 WNW 1   Clear   62 45     53%     30.06        
Jan 15 21:10 WNW 2   Clear   62 43     49%     30.05        
Jan 15 21:05 WNW 2   Clear   62 44     51%     30.05        
Jan 15 21:00 Calm   Clear   62 44     52%     30.05        
Jan 15 20:55 WNW 1   Clear   62 45     53%     30.05        
Jan 15 20:50 WNW 2   Clear   62 45     53%     30.05        
Jan 15 20:45 WNW 2   Clear   62 45     54%     30.05        
Jan 15 20:40 WNW 2   Clear   62 45     53%     30.04        
Jan 15 20:35 WNW 1   Clear   62 45     53%     30.04        
Jan 15 20:30 WNW 1   Clear   62 44     52%     30.04        
Jan 15 20:25 WNW 1   Clear   62 44     51%     30.03        
Jan 15 20:20 WNW 1   Clear   63 44     49%     30.03        
Jan 15 20:15 Calm   Clear   63 45     51%     30.03        
Jan 15 20:10 WNW 2   Clear   63 45     51%     30.03        
Jan 15 20:05 WNW 2   Clear   63 44     50%     30.03        
Jan 15 20:00 WNW 1   Clear   64 43     47%     30.03        
Jan 15 19:55 WNW 1   Clear   64 43     47%     30.03        
Jan 15 19:45 WNW 2   Clear   65 41     42%     30.03        
Jan 15 19:40 WNW 3   Clear   65 42     43%     30.03        
Jan 15 19:35 WNW 3   Clear   65 41     42%     30.03        
Jan 15 19:30 WNW 3   Clear   65 43     44%     30.03        
Jan 15 19:20 WNW 2   Clear   66 43     43%     30.03        
Jan 15 19:15 WNW 3   Clear   66 43     43%     30.03        
Jan 15 19:10 WNW 2   Clear   66 43     43%     30.03        
Jan 15 19:05 WNW 3   Clear   66 43     43%     30.03        
Jan 15 19:00 WNW 2   Clear   66 42     42%     30.03        
Jan 15 18:55 WNW 3   Clear   66 43     43%     30.03        
Jan 15 18:50 WNW 2   Clear   66 42     42%     30.03        
Jan 15 18:45 WNW 2   Clear   65 43     44%     30.03        
Jan 15 18:40 WNW 2   Clear   65 45     48%     30.03        
Jan 15 18:35 WNW 2   Clear   66 45     46%     30.03        
Jan 15 18:30 Calm   Clear   66 45     47%     30.03        
Jan 15 18:25 Calm   Clear   65 46     50%     30.03        
Jan 15 18:00 WNW 2   Clear   67 44     44%     30.03        
Jan 15 17:55 WNW 1   Clear   66 43     44%     30.03        
Jan 15 17:50 Calm   Clear   66 45     46%     30.03        
Jan 15 17:45 Calm   Clear   66 46     48%     30.03        
Notice The following observation data may not be complete
Jan 15 17:40     Clear            %              
Jan 15 17:35 WNW 2   Clear   67 45     45%     30.03        
Jan 15 17:30 WNW 3   Clear   67 46     46%     30.02        
Jan 15 17:25 WNW 3   Clear   67 45     45%     30.02        
Jan 15 17:20 Calm   Clear   67 46     47%     30.02        
Jan 15 17:15 WNW 1   Clear   68 45     44%     30.02        
Jan 15 17:10 WNW 2   Clear   68 46     45%     30.01        
Jan 15 17:00 WNW 1   Clear   70 43     38%     30.01        
Notice The following observation data may not be complete
Jan 15 16:55     Clear            %              
Jan 15 16:50 WNW 1   Clear   71 43     36%   69 30.01        
Jan 15 16:45 WNW 1   Clear   71 43     36%   69 30.01        
Notice The following observation data may not be complete
Jan 15 16:40     Clear            %              
Jan 15 16:35 Calm   Clear   72 40     31%   70 30.01        
Jan 15 16:20 WNW 2   Clear   73 41     31%   71 30        
Jan 15 16:15 Calm   Clear   74 40     29%   72 30        
Notice The following observation data may not be complete
Jan 15 16:10     Clear            %              
Jan 15 16:05 Calm   Clear   74 38     27%   72 30        
Jan 15 16:00 WNW 1   Clear   74 38     27%   72 30        
Jan 15 15:55 WNW 1   Clear   75 39     27%   73 30        
Jan 15 15:50 WNW 2   Clear   75 38     26%   73 30        
Jan 15 15:45 WNW 2   Clear   75 39     27%   73 30        
Jan 15 15:40 WNW 2   Clear   76 38     25%   74 30        
Jan 15 15:35 WNW 2   Clear   76 38     25%   74 30        
Jan 15 15:30 WNW 3   Clear   76 38     25%   74 30        
Jan 15 15:20 WNW 2   Clear   76 39     26%   75 30        
Jan 15 15:15 WNW 2   Clear   76 39     26%   75 30        
Jan 15 15:10 WNW 3   Clear   76 39     26%   75 30        
Jan 15 15:05 WNW 2   Clear   76 37     24%   74 30        
Jan 15 15:00 WNW 2   Clear   77 38     25%   76 30        
Notice The following observation data may not be complete
Jan 15 14:55     Clear            %              
Jan 15 14:50 WNW 3   Clear   77 36     23%   75 30        
Jan 15 14:45 WNW 3   Clear   77 35     22%   75 30        
Notice The following observation data may not be complete
Jan 15 14:40     Clear            %              
Jan 15 14:35 WNW 2   Clear   78 36     22%   77 30        
Notice The following observation data may not be complete
Jan 15 14:25     Clear            %              
Jan 15 14:20 WNW 2   Clear   77 34     21%   75 30        
Jan 15 14:15 WNW 2   Clear   77 34     21%   75 30        
Jan 15 14:10 WNW 1   Clear   77 35     22%   75 30        
Jan 15 13:45 WNW 2   Clear   76 34     22%   74 30.01        
Jan 15 13:40 WNW 2   Clear   77 34     21%   75 30.01        
Jan 15 13:35 WNW 2   Clear   76 34     22%   74 30.01        
Jan 15 13:30 WNW 2   Clear   77 37     24%   76 30.01        
Jan 15 13:25 WNW 3   Clear   77 35     22%   75 30.01        
Jan 15 13:20 WNW 1   Clear   76 36     23%   74 30.01        
Jan 15 13:15 WNW 2   Clear   76 36     23%   74 30.01        
Jan 15 13:10 WNW 2   Clear   76 37     24%   74 30.01        
Jan 15 13:05 WNW 2   Clear   76 36     23%   74 30.02        
Jan 15 13:00 Calm   Clear   75 36     24%   73 30.02        
Jan 15 12:55 WNW 1   Clear   75 37     25%   73 30.02        
Jan 15 12:50 WNW 1   Clear   75 35     23%   73 30.02        
Jan 15 12:45 WNW 2   Clear   75 37     25%   73 30.02        
Notice The following observation data may not be complete
Jan 15 12:40     Clear            %              
Jan 15 12:35 WNW 2   Clear   75 38     26%   73 30.03        
Jan 15 12:15 WNW 3   Clear   75 36     24%   73 30.03        
Jan 15 12:10 WNW 2   Clear   74 37     26%   72 30.03        
Jan 15 12:05 WNW 2   Clear   74 37     26%   72 30.04        
Jan 15 12:00 WNW 2   Clear   74 37     26%   72 30.04        
Jan 15 11:55 WNW 1   Clear   74 38     27%   72 30.04        
Jan 15 11:50 WNW 2   Clear   74 38     27%   72 30.05        
Jan 15 11:45 WNW 2   Clear   73 38     28%   71 30.05        
Notice The following observation data may not be complete
Jan 15 11:40     Clear            %              
Jan 15 11:35 WNW 2   Clear   73 39     29%   71 30.06        
Jan 15 11:30 WNW 2   Clear   73 38     28%   71 30.06        
Jan 15 11:25 WNW 1   Clear   73 40     30%   71 30.07        
Jan 15 11:15 WNW 1   Clear   72 38     29%   70 30.07        
Jan 15 11:10 WNW 1   Clear   72 39     30%   70 30.08        
Jan 15 11:05 WNW 1   Clear   71 40     33%   69 30.09        
Jan 15 11:00 WNW 1   Clear   71 40     32%   69 30.09        
Jan 15 10:55 WNW 1   Clear   71 39     31%   69 30.09        
Jan 15 10:50 WNW 2   Clear   71 39     31%   69 30.09        
Jan 15 10:45 WNW 1   Clear   71 40     33%   69 30.09        
Jan 15 10:40 WNW 1   Clear   71 42     35%   69 30.09        
Jan 15 10:35 WNW 1   Clear   70 42     36%     30.09        
Jan 15 10:30 WNW 1   Clear   70 42     36%     30.09        
Jan 15 10:25 Calm   Clear   69 41     36%     30.1        
Jan 15 10:15 WNW 1   Clear   69 40     35%     30.1        
Jan 15 10:10 Calm   Clear   68 41     38%     30.1        
Jan 15 10:05 WNW 1   Clear   68 41     38%     30.1        
Jan 15 10:00 Calm   Clear   67 41     38%     30.1        
Jan 15 09:55 Calm   Clear   66 40     38%     30.1        
Jan 15 09:50 Calm   Clear   66 41     40%     30.1        
Jan 15 09:45 WNW 1   Clear   66 42     41%     30.1        
Jan 15 09:40 WNW 1   Clear   65 42     43%     30.1        
Jan 15 09:35 WNW 1   Clear   64 42     44%     30.1        
Jan 15 09:30 Calm   Clear   64 42     44%     30.1        
Jan 15 09:25 Calm   Clear   63 40     43%     30.1        
Jan 15 09:20 Calm   Clear   62 40     44%     30.1        
Jan 15 09:15 WNW 1   Clear   62 40     45%     30.1        
Jan 15 09:10 WNW 1   Clear   61 40     46%     30.1        
Jan 15 09:05 WNW 1   Clear   61 40     46%     30.1        
Jan 15 09:00 WNW 2   Clear   60 40     48%     30.09        
Jan 15 08:55 WNW 1   Clear   60 42     51%     30.09        
Jan 15 08:50 WNW 1   Clear   59 41     52%     30.09        
Jan 15 08:45 WNW 1   Clear   58 41     53%     30.09        
Jan 15 08:40 WNW 1   Clear   58 41     53%     30.09        
Jan 15 08:35 WNW 1   Clear   57 41     54%     30.09        
Jan 15 08:30 WNW 1   Clear   56 41     56%     30.09        
Jan 15 08:25 WNW 2   Clear   56 41     57%     30.09        
Notice The following observation data may not be complete
Jan 15 08:15 WNW 2   Clear     39      %     30.09        
Notice The following observation data may not be complete
Jan 15 08:10 WNW 2   Clear     40      %     30.09        
Jan 15 08:05 WNW 2   Clear   54 40     59%     30.08        
Jan 15 08:00 WNW 2   Clear   53 39     59%     30.08        
Jan 15 07:50 WNW 2   Clear   52 39     61%     30.08        
Jan 15 07:45 WNW 1   Clear   52 39     62%     30.07        
Jan 15 07:40 WNW 1   Clear   51 38     61%     30.07        
Jan 15 07:35 WNW 1   Clear   51 38     61%     30.07        
Jan 15 07:30 WNW 1   Clear   51 38     62%     30.07        
Jan 15 07:15 WNW 2   Clear   50 38     63%     30.07        
Jan 15 07:10 WNW 1   Clear   50 38     63%     30.07        
Jan 15 07:05 WNW 1   Clear   51 38     62%     30.06        
Jan 15 07:00 WNW 1   Clear   49 37     64%     30.07        
Jan 15 06:50 WNW 2   Clear   50 38     62%     30.07        
Jan 15 06:45 WNW 2   Clear   50 37     62%     30.06        
Jan 15 06:40 WNW 2   Clear   50 38     63%     30.06        
Jan 15 06:35 WNW 2   Clear   49 37     64%     30.06        
Jan 15 06:30 WNW 2   Clear   49 37     64%     30.06        
Jan 15 06:25 WNW 1   Clear   50 38     64%     30.06        
Jan 15 06:20 WNW 2   Clear   49 38     65%     30.06        
Jan 15 06:15 WNW 2   Clear   50 39     66%     30.06        
Jan 15 06:10 WNW 1   Clear   49 38     65%     30.06        
Jan 15 06:05 WNW 1   Clear   50 38     63%     30.06        
Jan 15 06:00 WNW 1   Clear   50 38     64%     30.06        
Notice The following observation data may not be complete
Jan 15 05:40     Clear            %              
Jan 15 05:35 Calm   Clear   50 38     62%     30.06        
Jan 15 05:30 WNW 1   Clear   50 38     63%     30.06        
Jan 15 05:25 WNW 2   Clear   50 38     63%     30.06        
Jan 15 05:20 WNW 2   Clear   51 40     65%     30.06        
Jan 15 05:15 WNW 2   Clear   50 38     63%     30.06        
Notice The following observation data may not be complete
Jan 15 05:10     Clear            %              
Jan 15 05:05 WNW 2   Clear   52 38     59%     30.06        
Jan 15 05:00 WNW 2   Clear   52 38     59%     30.06        
Jan 15 04:55 WNW 3   Clear   52 37     57%     30.06        
Jan 15 04:50 WNW 2   Clear   52 39     60%     30.06        
Jan 15 04:45 WNW 1   Clear   52 38     58%     30.06        
Jan 15 04:40 WNW 1   Clear   52 38     58%     30.06        
Jan 15 04:35 WNW 2   Clear   51 38     60%     30.06        
Jan 15 04:30 WNW 2   Clear   51 38     60%     30.06        
Jan 15 04:25 WNW 2   Clear   51 38     60%     30.06        
Jan 15 04:20 WNW 1   Clear   51 37     59%     30.06        
Jan 15 04:15 WNW 2   Clear   51 38     60%     30.06        
Jan 15 04:10 WNW 2   Clear   51 38     60%     30.06        
Jan 15 04:05 WNW 1   Clear   51 38     60%     30.06        
Jan 15 04:00 WNW 2   Clear   51 38     60%     30.06        
Notice The following observation data may not be complete
Jan 15 03:55     Clear            %              
Jan 15 03:50 WNW 2   Clear   51 38     62%     30.06        
Jan 15 03:45 WNW 2   Clear   52 38     59%     30.06        
Jan 15 03:40 WNW 2   Clear   53 38     57%     30.06        
Jan 15 03:35 WNW 2   Clear   53 38     57%     30.06        
Jan 15 03:30 WNW 1   Clear   53 39     58%     30.06        
Jan 15 03:25 WNW 2   Clear   53 38     57%     30.06        
Jan 15 03:20 WNW 2   Clear   54 38     54%     30.06        
Jan 15 03:15 WNW 1   Clear   53 37     55%     30.06        
Jan 15 03:00 WNW 2   Clear   53 39     58%     30.07        
Jan 15 02:55 WNW 2   Clear   53 39     58%     30.07        
Jan 15 02:50 WNW 1   Clear   52 39     60%     30.07        
Jan 15 02:45 WNW 1   Clear   52 39     60%     30.07        
Jan 15 02:40 WNW 1   Clear   53 39     59%     30.07        
Jan 15 02:35 WNW 1   Clear   53 38     57%     30.07        
Jan 15 02:30 WNW 2   Clear   53 38     56%     30.07        
Jan 15 02:25 WNW 1   Clear   53 38     56%     30.07        
Jan 15 02:15 WNW 1   Clear   53 38     56%     30.07        
Jan 15 02:10 WNW 2   Clear   54 38     55%     30.07        
Jan 15 02:00 WNW 2   Clear   55 38     53%     30.07        
Notice The following observation data may not be complete
Jan 15 01:55     Clear            %              
Jan 15 01:50 WNW 2   Clear   54 38     55%     30.07        
Jan 15 01:45 WNW 3   Clear   54 39     56%     30.07        
Notice The following observation data may not be complete
Jan 15 01:40     Clear            %              
Jan 15 01:35 WNW 2   Clear   54 39     56%     30.07        
Jan 15 01:30 WNW 2   Clear   54 39     57%     30.07        
Jan 15 01:05 WNW 2   Clear   56 38     51%     30.08        
Jan 15 01:00 WNW 3   Clear   56 38     51%     30.08        
Jan 15 00:55 WNW 3   Clear   56 38     51%     30.08        
Jan 15 00:50 WNW 2   Clear   56 38     51%     30.08        
Jan 15 00:45 WNW 3   Clear   56 39     52%     30.09        
Jan 15 00:40 WNW 3   Clear   56 39     52%     30.09        
Jan 15 00:35 WNW 2   Clear   56 39     53%     30.08        
Jan 15 00:30 WNW 2   Clear   56 39     53%     30.08        
Jan 15 00:25 WNW 2   Clear   57 40     52%     30.09        
Jan 15 00:05 WNW 2   Clear   55 39     54%     30.09        
Jan 15 00:00 WNW 2   Clear   55 39     55%     30.09        
Jan 14 23:55 WNW 2   Clear   55 39     55%     30.09        
Jan 14 23:50 WNW 2   Clear   55 39     54%     30.09        
Jan 14 23:45 WNW 2   Clear   56 40     54%     30.09        
Jan 14 23:40 WNW 1   Clear   55 39     54%     30.1        
Jan 14 23:35 WNW 1   Clear   55 39     54%     30.1        
Jan 14 23:30 WNW 1   Clear   56 39     53%     30.1        
Jun 12 06:10 NNW 12   Clear   64 47     53%     29.86        
Jun 12 06:00 NNW 12   Clear   64 47     53%     29.85        
Jun 12 05:00     Clear   65 45     49%     29.83        
Jun 12 04:00     Clear   66 45     47%     29.82        
Jun 12 03:45     Clear   66 44     45%     29.82        
Jun 12 03:40 NW 17   Clear   66 44     45%     29.81        
Jun 12 03:30 NW 16   Clear   66 45     46%     29.82        
Notice The following observation data may not be complete
Jun 12 03:25     Clear            %              
Jun 12 03:05 WNW 15   Clear   66 44     45%     29.82        
Jun 12 02:45 NW 16   Clear   66 44     45%     29.81        
Jun 12 02:15 NW 16   Clear   67 44     44%     29.8        
Notice The following observation data may not be complete
Jun 12 00:55     Clear            %              
Jun 12 00:30     Clear   67 47     49%     29.8        
Jun 12 00:25 NW 18   Clear   67 47     49%     29.8        
Jun 11 23:45 NW 20   Clear and Windy   67 47     48%     29.8        
Jun 11 23:25 WNW 20   Clear and Windy   68 47     47%     29.8        
Jun 11 21:50 NW 20   Clear and Windy   68 47     47%     29.79        
Jun 11 21:40 NW 20   Clear and Windy   69 47     46%     29.78        
Jun 11 21:30 NW 17   Clear   69 47     45%     29.77        
Jun 11 21:25     Clear   70 47     44%     29.77        
Jun 11 21:20 NW 15   Clear   70 47     44%     29.76        
Jun 11 21:05 NW 16   Clear   70 47     44%     29.75        
Jun 11 21:00 NW 17   Clear   71 48     44%   70 29.75        
Jun 11 20:50 NW 17   Clear   71 47     42%   70 29.74        
Jun 11 18:55 NW 16   Clear   79 44     29%   78 29.69        
Jun 11 18:40 NW 18   Clear   80 45     29%   79 29.69        
Jun 11 16:45 NW 11   Clear   85 44     24%   82 29.68        
Jun 11 15:55 NW 18   Clear   85 46     26%   82 29.69        
Jun 11 15:50 NW 17   Clear   85 45     25%   82 29.69        
Jun 11 15:40 NW 16   Clear   85 46     26%   82 29.69        
Jun 11 15:35     Clear   85 45     25%   82 29.69        
Jun 11 15:30 WNW 21   Clear and Windy   85 45     25%   82 29.69        
Jun 11 15:25     Clear   85 45     25%   82 29.69        
Jun 11 15:20 WNW 12   Clear   86 45     24%   83 29.69        
Jun 11 15:10 WNW 19   Clear   85 46     26%   82 29.69        
Jun 11 15:05 NW 17   Clear   85 46     26%   82 29.69        
Jun 11 15:00 NW 18   Clear   85 46     26%   82 29.69        
Jun 11 14:35 NW 22   Clear and Windy   85 46     26%   82 29.7        
Jun 11 14:30 NW 17   Clear   85 45     25%   82 29.7        
Jun 11 13:30 WNW 17   Clear   83 47     29%   81 29.71        
Jun 11 13:15 NW 20   Clear and Windy   82 47     30%   80 29.71        
Jun 11 12:35 NW 17   Clear   81 48     32%   80 29.72        
Jun 11 12:30 WNW 16   Clear   81 49     33%   80 29.72        
Jun 11 11:15 WNW 10   Clear   80 49     34%   79 29.74        
Jun 11 10:10 WNW 13   Clear   77 48     36%   76 29.72        
Jun 11 09:15 NW 15   Clear   75 48     39%   74 29.72        
Jun 11 09:00 WNW 13   Clear   74 48     40%   73 29.72        
Jun 11 08:35 WNW 13   Clear   73 49     43%   72 29.72        
Jun 11 08:15 NW 10   Clear   71 48     44%   70 29.71        
Jun 11 07:55 NW 14   Clear   70 48     45%     29.71        
Jun 11 07:35 NW 17   Clear   69 48     47%     29.7        
Jun 11 07:05 WNW 16   Clear   68 48     48%     29.69        
Jun 11 06:15 WNW 14   Clear   66 45     47%     29.67        
Jun 11 05:35     Clear   66 47     50%     29.66        
Jun 11 05:05 WNW 16   Clear   66 46     49%     29.65        
Jun 11 04:45     Clear   66 47     51%     29.65        
Jun 11 04:25 WNW 18   Clear   66 47     51%     29.64        
Jun 11 03:35     Clear   66 49     54%     29.63        
Jun 11 03:20 NW 19   Clear   66 49     54%     29.63        
Jun 11 03:00 NW 19   Clear   66 48     53%     29.62        
Jun 11 01:35     Clear   67 50     54%     29.63        
Jun 11 01:00 WNW 21   Clear and Windy   69 50     50%     29.63        
Jun 11 00:45     Clear   70 49     48%     29.63        
Jun 11 00:30 WNW 17   Clear   71 49     45%   70 29.63        
Jun 11 00:15 WNW 25   Clear and Windy   72 48     43%   71 29.63        
Jun 11 00:10 NW 18   Clear   72 48     43%   71 29.63        
Jun 11 00:05 NW 17   Clear   72 49     44%   71 29.63        
Jun 10 22:10 NW 20   Clear and Windy   74 49     42%   73 29.62        
Jun 10 21:35     Clear   76 49     39%   75 29.61        
Jun 10 21:00 NW 18   Clear   78 50     37%   77 29.6        
Jun 10 20:30 WNW 20   Clear and Windy   78 50     38%   77 29.6        
Jun 10 20:20 NW 16   Clear   79 50     37%   78 29.6        
Jun 10 20:05 NW 15   Clear   79 51     38%   78 29.6        
Jun 10 19:25 NW 16   Clear   81 52     36%   80 29.6        
Jun 10 18:55 NNW 20   Clear and Windy   83 52     34%   82 29.6        
Jun 10 17:55 NW 12   Clear   89 47     24%   86 29.59        
Jun 10 17:35 WNW 16   Clear   90 46     22%   87 29.6        
Jun 10 16:45 NW 14   Clear   92 41     17%   88 29.59        
Jun 10 16:25 NNW 15   Clear   93 38     15%   89 29.6        
Jun 10 16:10 NW 14   Clear   93 38     15%   89 29.6        
Jun 10 12:30 WNW 10   Clear   88 46     23%   85 29.69        
Notice The following observation data may not be complete
Jun 10 11:25     Clear            %              
Jun 10 11:10 NW 9   Clear   85 47     27%   83 29.7        
Jun 10 10:35 NW 10   Clear   84 48     29%   82 29.7        
Jun 10 10:30 WNW 9   Clear   84 48     29%   82 29.7        
Jun 10 10:00 WNW 8   Clear   83 50     32%   81 29.7        
Jun 10 08:50 NW 10   Clear   80 49     34%   79 29.7        
Jun 10 08:20 WNW 10   Clear   79 50     36%   78 29.7        
Jun 10 07:35     Clear   77 49     37%   76 29.69        
Jun 10 06:40     Clear   75 46     36%   74 29.67        
Jun 10 06:10     Clear   75 47     37%   74 29.67        
Jun 10 04:55 NW 13   Clear   75 47     37%   74 29.66        
Jun 10 04:20 NW 12   Clear   75 49     40%   74 29.66        
Jun 10 04:15     Clear   75 50     42%   74 29.66        
Jun 10 01:45     Clear   74 54     49%   73 29.67        
Jun 10 01:15     Clear   75 53     46%   74 29.66        
Jun 09 21:00 NW 17   Clear   82 52     36%   81 29.65        
Notice The following observation data may not be complete
Jun 09 20:10     Clear            %              
Jun 09 18:50 WNW 16   Clear   92 51     25%   89 29.62        
Jun 09 18:30     Clear   93 51     24%   90 29.62        
Jun 09 18:20 NW 14   Clear   94 52     24%   91 29.62        
Jun 09 18:05 NW 10   Clear   95 51     23%   92 29.62        
Jun 09 17:10 WNW 14   Clear   96 52     23%   93 29.64        
Jun 09 16:30 NW 17   Clear   97 52     22%   94 29.65        
Jun 09 16:25 NW 9   Clear   97 51     21%   94 29.65        
Jun 09 15:50 NW 15   Clear   97 52     22%   94 29.66        
Jun 09 15:35 NW 17   Clear   97 52     22%   94 29.67        
Jun 09 14:35 NW 16   Clear   98 49     19%   95 29.69        
Jun 09 14:25 NW 8   Clear   98 49     19%   95 29.69        
Jun 09 14:20 NW 16   Clear   97 48     19%   94 29.69        
Jun 09 13:25 NNE 3   Clear   96 44     17%   92 29.7        
Jun 09 13:00 NNW 9   Clear   97 45     17%   93 29.72        
Jun 09 12:25 WNW 6   Clear   96 44     17%   92 29.73        
Jun 09 12:15 WNW 5   Clear   95 43     17%   91 29.73        
Jun 09 10:15 WSW 3   Clear   90 41     18%   86 29.75        
Notice The following observation data may not be complete
Jun 09 09:55     Clear            %              
Jun 09 09:00 W 4   Clear   86 47     26%   83 29.77        
Jun 09 08:15 NW 13   Clear   82 47     30%   80 29.76        
Jun 09 06:35 WNW 14   Clear   77 47     35%   76 29.75        
Jun 09 03:30     Clear   76 49     39%   75 29.73        
Jun 09 03:10 NW 16   Clear   77 48     36%   76 29.73        
Notice The following observation data may not be complete
Jun 09 02:55     Clear            %              
Jun 09 02:25 NW 16   Clear   78 47     34%   77 29.73        
Jun 09 02:20     Clear   78 47     34%   77 29.73        
Jun 09 02:15     Clear   78 47     33%   77 29.73        
Jun 09 01:45 NW 18   Clear   78 45     31%   77 29.73        
Jun 09 01:25 WNW 15   Clear   79 45     30%   78 29.73        
Jun 09 01:15 NW 17   Clear   79 44     29%   78 29.73        
Jun 09 01:10     Clear   79 45     30%   78 29.73        
Jun 09 01:00 NW 17   Clear   79 46     31%   78 29.73        
Jun 09 00:45     Clear   79 46     31%   78 29.73        
Jun 09 00:25     Clear   80        %     29.74        
Jun 09 00:15 NW 17   Clear   80 45     29%   79 29.73        
Jun 08 23:45 NW 17   Clear   80 45     29%   79 29.74        
Jun 08 23:40     Clear   80 46     30%   79 29.74        
Jun 08 23:15 NW 18   Clear   81 47     30%   80 29.74        
Jun 08 22:50     Clear   82 46     28%   80 29.74        
Jun 08 22:45 WNW 19   Clear   82 46     28%   80 29.74        
Jun 08 22:25     Clear   83 42     24%   81 29.74        
Jun 08 21:45 NW 13   Clear   84 44     25%   82 29.73        
Jun 08 21:40 NW 15   Clear   84 44     25%   82 29.73        
Jun 08 21:35 NW 13   Clear   84 44     25%   82 29.73        
Jun 08 20:40 NW 12   Clear   85 49     29%   83 29.72        
Jun 08 20:10 NW 10   Clear   87 47     25%   84 29.72        
Jun 08 19:30 NW 14   Clear   89 47     24%   86 29.7        
Jun 08 19:25     Clear   89 47     24%   86 29.7        
Jun 08 19:10 NW 15   Clear   91 47     22%   88 29.7        
Notice The following observation data may not be complete
Jun 08 18:25     Clear            %              
Jun 08 17:50 WNW 15   Clear   96 43     16%   92 29.7        
Jun 08 17:40 NW 18   Clear   97 42     15%   93 29.7        
Notice The following observation data may not be complete
Jun 08 16:55     Clear            %              
Jun 08 15:05 WNW 8   Clear   100 42     14%   96 29.73        
Notice The following observation data may not be complete
Jun 08 12:55     Clear            %              
Notice The following observation data may not be complete
Jun 08 12:25     Clear            %              
Notice The following observation data may not be complete
Jun 08 10:25     Clear            %              
Jun 08 09:40 WSW 5   Clear   83 55     39%   82 29.86        
Notice The following observation data may not be complete
Jun 08 09:25     Clear            %              
Jun 08 08:05 W 3   Clear   78 52     40%   77 29.84        
Jun 08 07:15 WNW 9   Clear   76 52     43%   75 29.82        
Notice The following observation data may not be complete
Jun 08 02:25     Clear            %              
Jun 08 01:55 NW 12   Clear   76 54     46%   75 29.77        
Jun 08 01:30 NW 6   Clear   78 54     44%   78 29.77        
Jun 08 01:20 WNW 9   Clear   77 55     46%   77 29.76        
Jun 08 01:10 NW 8   Clear   78 55     45%   78 29.76        
Jun 08 00:55 NNW 3   Clear   78 55     45%   78 29.77        
Notice The following observation data may not be complete
Jun 07 23:40     Clear            %              
Jun 07 23:15 NW 5   Clear   81 54     40%   81 29.76        
Jun 07 22:35 NW 7   Clear   81 55     41%   81 29.76        
Jun 07 21:40 NW 9   Clear   84 54     36%   83 29.73        
Jun 07 19:20 WNW 9   Clear   94 54     26%   92 29.7        
Jun 07 17:55 E 6   Clear   100 44     15%   96 29.7        
Jun 07 17:00 ENE 3   Clear   99 47     17%   95 29.71        
Jun 07 14:45 SE 7   Clear   99 45     16%   95 29.77        
Jun 07 13:00 ESE 3   Clear   95 51     23%   92 29.81        
Jun 07 11:50 ESE 2   Clear   91 52     27%   88 29.82        
Jun 07 10:15 SE 5   Clear   87 54     33%   85 29.83        
Jun 07 10:05 E 5   Clear   88 54     31%   86 29.83        
Jun 07 09:20 WNW 2   Clear   86 56     36%   85 29.83        
Jun 07 09:00 W 2   Clear   84 57     40%   83 29.83        
Jun 07 07:55 W 3   Clear   79 58     48%   79 29.81        
Jun 07 07:20 WNW 6   Clear   76 57     52%   76 29.81        
Jun 07 06:30 WNW 4   Clear   74 57     55%   74 29.8        
Jun 06 13:15 ESE 6   Clear   100 49     18%   97 29.77        
Jun 06 11:25 SSE 4   Clear   94 53     25%   91 29.8        
Notice The following observation data may not be complete
Jun 06 09:55     Clear            %              
Jun 06 09:25 SE 3   Clear   88 52     29%   86 29.81        
Notice The following observation data may not be complete
Jun 06 06:40     Clear            %              
Jun 06 06:35 Calm   Clear   77 53     44%   76 29.79        
Jun 06 05:10 WNW 2   Clear   74 51     45%   73 29.76        
Jun 06 04:20 WNW 2   Clear   78 53     42%   77 29.75        
Jun 06 02:35 N 2   Clear   82 54     38%   81 29.74        
Jun 06 00:50 NNE 1   Clear   83 54     37%   82 29.75        
Jun 05 23:10 NNE 2   Clear   88 54     31%   86 29.74        
Jun 05 22:20 N 5   Clear   89 54     31%   87 29.73        
Jun 05 22:00 NNE 2   Clear   89 54     31%   87 29.71        
Jun 05 20:30 NW 11   Clear   95 52     24%   92 29.67        
Jun 05 19:55 NW 5   Clear   97 51     21%   94 29.66        
Jun 05 18:55 SE 5   Clear   102 49     17%   99 29.65        
Jun 05 18:10 SE 6   Clear   103 50     17%   100 29.64        
Jun 05 16:20 ESE 6   Clear   106 47     14%   102 29.65        
Jun 05 16:00 SSE 4   Clear   105 42     12%   100 29.65        
Jun 05 15:30 SSE 6   Clear   105 40     11%   100 29.66        
Jun 05 14:45 E 5   Clear   105 44     13%   101 29.68        
Jun 05 14:35 ESE 1   Clear   104 41     12%   99 29.68        
Jun 05 13:10 E 3   Clear   102 40     12%   97 29.71        
Jun 05 12:50 ESE 2   Clear   99 47     17%   95 29.71        
Jun 05 12:30 ENE 1   Clear   99 45     16%   95 29.72